Tracking 18945 objects as of 19-Jan-2018
HD Live streaming from Space Station
objects crossing your sky now

FENGYUN 1C DEB

Track FENGYUN 1C DEB now!
10-day predictions


NORAD ID: 31212
Int'l Code: 1999-025BKS
Perigee: 835.3 km
Apogee: 959.0 km
Inclination: 99.1 °
Period: 102.8 minutes
Semi major axis: 7268 km
RCS: 0.0061 m2 (small)
Launch date: May 10, 1999
Source: People's Republic of China (PRC)
Launch site: Taiyaun Space Center, China (TSC)

Note: This is SATELLITE DEBRIS
aabbcc
Your satellite tracking list
Your tracking list is empty




NASA's NSSDC Master Catalog

Two Line Element Set (TLE):
1 31212U 99025BKS 18016.30489875 +.00000596 +00000-0 +41400-3 0  9996
2 31212 099.1025 333.3849 0085053 238.5254 120.7578 14.01097793551271
Source of the keplerian elements: AFSPC